[[{"header":{"parameterUnit":"m.s-1","parameterCategory":1,"la1":30.2991,"la2":30.254,"lo1":-89.0895,"lo2":-89.0444,"dy":0.0017,"dx":0.0017,"nx":28,"ny":28,"refTime":"2024-11-26T09:00:00:Z","depth":0,"parameterNumber":2,"parameterNumberName":"U-component_of_WINDS"},"data":[0,0,0,0,0,0,0,0,0,0,0,0,0,0,0,0,0,0,0,0,0,0,0,0,0,0,0,0,0,0,0,0,0,0,0,0,0,0,0,0,0,0,0,0,0,0,0,0,0,0,0,0,0,0,0,0,0,0,0.8116,0.8116,0,0.8164,0.8165,0.8165,0.817,0.817,0.8169,0.8169,0.8221,0.8223,0.8225,0,0,0,0,0,0,0,0,0,0,0,0,0,0.8032,0.8033,0.8116,0.8116,0.8117,0.8164,0.8165,0.8165,0.817,0.817,0.8169,0.8168,0.8221,0.8223,0.8225,0,0,0,0,0,0,0,0,0,0,0,0,0,0.8073,0.8034,0.8115,0.8125,0.8126,0.8164,0.8165,0.8166,0.817,0.817,0.8169,0.8168,0.822,0.8223,0.8226,0.8258,0,0,0.8234,0.8235,0,0,0,0,0,0,0,0,0.8071,0.8076,0.8123,0.8124,0.8126,0.816,0.8154,0.8197,0.8171,0.8154,0.8169,0.8168,0.8202,0.8206,0.8217,0.8261,0.8263,0.8234,0.8236,0.8237,0.8238,0,0,0,0,0,0,0,0.8068,0.8074,0.8135,0.8124,0.8125,0.8128,0.8133,0.8163,0.8182,0.8155,0.8156,0.8161,0.8203,0.8214,0.8218,0.8264,0.8234,0.8237,0.8239,0.824,0.834,0.8341,0,0,0,0,0,0,0.8063,0.8072,0.8133,0.8136,0.8096,0.813,0.8136,0.815,0.8181,0.8185,0.8162,0.8161,0.821,0.8215,0.822,0.8262,0.8237,0.824,0.8242,0.8339,0.834,0.8341,0,0,0,0,0,0,0.8061,0.8068,0.8131,0.8104,0.8112,0.8132,0.8148,0.8151,0.8163,0.8186,0.819,0.817,0.8209,0.8216,0.8249,0.8264,0.8241,0.8244,0.8338,0.8339,0.8341,0.8345,0,0,0,0,0,0,0.8058,0.8067,0.8079,0.8104,0.8114,0.8158,0.8149,0.8153,0.8167,0.8167,0.8195,0.8199,0.8209,0.8245,0.8252,0.8267,0.8246,0.8337,0.8338,0.834,0.8344,0.8347,0.8349,0,0,0,0,0,0.8055,0.8078,0.8079,0.8087,0.8128,0.8159,0.8164,0.8175,0.8169,0.8181,0.8197,0.8198,0.8261,0.8248,0.8256,0.8273,0.8336,0.8338,0.834,0.8343,0.8346,0.8349,0,0,0,0,0,0,0.8054,0.8082,0.8083,0.8114,0.8134,0.8159,0.8175,0.8178,0.8201,0.82,0.8214,0.822,0.8253,0.8266,0.8251,0.8308,0.8298,0.8302,0.8297,0.8301,0.8303,0.83,0.8248,0,0,0,0,0,0.8057,0.8079,0.8102,0.8128,0.8138,0.8155,0.8169,0.8175,0.8197,0.8205,0.8223,0.8245,0.827,0.8286,0.831,0.8346,0.8354,0.8362,0.8364,0.8366,0.837,0.8392,0.8397,0.8348,0.8348,0.8348,0,0,0.8065,0.8082,0.8095,0.8128,0.8144,0.8168,0.8162,0.8186,0.8204,0.8209,0.8242,0.8256,0.8281,0.8316,0.8333,0.8329,0.8385,0.8369,0.8371,0.8373,0.8395,0.8399,0.8403,0.835,0.835,0.8349,0,0,0.809,0.8105,0.8129,0.8145,0.8169,0.8181,0.8187,0.8212,0.8222,0.8254,0.8259,0.8282,0.8324,0.8343,0.8358,0.8393,0.8396,0.8401,0.8414,0.8436,0.844,0.8443,0.8458,0.8462,0.8404,0.8404,0.8404,0,0.8096,0.813,0.8141,0.8166,0.8181,0.8186,0.8212,0.8228,0.8259,0.8271,0.8265,0.832,0.8338,0.8378,0.8387,0.8398,0.8407,0.8397,0.8438,0.8442,0.8445,0.8459,0.8464,0.8404,0.8404,0.8404,0.8404,0,0.8137,0.8161,0.8178,0.8208,0.8225,0.825,0.8266,0.8283,0.8289,0.8302,0.8337,0.8358,0.8388,0.8398,0.8404,0.844,0.8437,0.8435,0.8426,0.845,0.8463,0.8469,0.8405,0.8405,0.8405,0.8405,0,0,0.8162,0.8199,0.8205,0.8219,0.8248,0.8267,0.8294,0.8322,0.8337,0.8359,0.8383,0.842,0.8419,0.8436,0.8445,0.8464,0.8493,0.8459,0.846,0.8466,0.8537,0.8539,0.8544,0.8495,0.8496,0.8497,0.8535,0,0.8191,0.8237,0.8248,0.8288,0.8312,0.8319,0.8342,0.8363,0.8377,0.84,0.8416,0.8442,0.8438,0.8448,0.8467,0.8485,0.8507,0.8482,0.8519,0.852,0.8513,0.8551,0.8553,0.8588,0.854,0.8541,0.8542,0,0.8231,0.8254,0.8296,0.8323,0.8334,0.8354,0.8383,0.8404,0.8429,0.8438,0.8458,0.8466,0.8496,0.8486,0.8529,0.8512,0.8528,0.8539,0.8541,0.8545,0.8533,0.8558,0.8599,0.8605,0.8549,0.8549,0.8548,0,0.8246,0.8288,0.8319,0.8331,0.8363,0.8378,0.8393,0.8417,0.8434,0.846,0.8471,0.85,0.8516,0.854,0.8556,0.8546,0.8599,0.8589,0.8609,0.8608,0.8619,0.8618,0.8665,0.8628,0.8628,0.8628,0.8628,0,0.8278,0.8304,0.8326,0.8345,0.8376,0.839,0.842,0.8435,0.8457,0.8481,0.8489,0.8511,0.8531,0.8557,0.857,0.8605,0.8612,0.8622,0.8625,0.8621,0.862,0.8632,0.8631,0.8629,0.8629,0.8629,0.8629,0,0.83,0.8316,0.835,0.8379,0.8387,0.8408,0.8433,0.8453,0.8467,0.8498,0.8506,0.8529,0.856,0.8578,0.8618,0.8627,0.8667,0.8668,0.8658,0.8659,0.8679,0.8677,0.8735,0.8745,0.87,0.8701,0.8701,0,0.8319,0.8339,0.837,0.8386,0.8401,0.8427,0.8444,0.846,0.8479,0.851,0.8527,0.8559,0.8585,0.8635,0.8657,0.8688,0.8691,0.8709,0.8696,0.8693,0.8693,0.8692,0.8696,0.8712,0.8712,0.8713,0.8713,0,0.8353,0.836,0.8384,0.8413,0.8434,0.8457,0.848,0.8493,0.8513,0.8534,0.8566,0.8586,0.8627,0.8659,0.8692,0.871,0.8716,0.8717,0.8724,0.872,0.8714,0.8719,0.8665,0.8716,0.8715,0.8715,0.8715,0.8715,0.8375,0.8394,0.8419,0.8447,0.8466,0.8488,0.8509,0.8526,0.8552,0.8586,0.8594,0.8629,0.8656,0.8702,0.872,0.8748,0.8745,0.8754,0.8757,0.8759,0.8761,0.8709,0.8754,0.8754,0.8754,0.8754,0.8754,0,0.841,0.8427,0.8452,0.8484,0.8507,0.851,0.8536,0.8556,0.8585,0.861,0.8635,0.8674,0.8705,0.873,0.8764,0.8782,0.8786,0.879,0.879,0.8794,0.876,0.8752,0.8787,0.8787,0.8787,0.8787,0.8787,0.8787,0.8431,0.8464,0.8474,0.8518,0.8535,0.8568,0.8583,0.8604,0.8624,0.8666,0.8692,0.8708,0.8734,0.877,0.88,0.8807,0.882,0.8824,0.8831,0.88,0.8796,0.8793,0.8785,0.8826,0.8826,0.8863,0.8863,0.8864]},{"header":{"parameterUnit":"m.s-1","parameterCategory":1,"la1":30.2991,"la2":30.254,"lo1":-89.0895,"lo2":-89.0444,"dy":0.0017,"dx":0.0017,"nx":28,"ny":28,"refTime":"2024-11-26T09:00:00:Z","depth":0,"parameterNumber":3,"parameterNumberName":"V-component_of_WINDS"},"data":[0,0,0,0,0,0,0,0,0,0,0,0,0,0,0,0,0,0,0,0,0,0,0,0,0,0,0,0,0,0,0,0,0,0,0,0,0,0,0,0,0,0,0,0,0,0,0,0,0,0,0,0,0,0,0,0,0,0,-3.6793,-3.6793,0,-3.6856,-3.6857,-3.6857,-3.685,-3.6849,-3.6848,-3.6847,-3.6906,-3.6909,-3.6911,0,0,0,0,0,0,0,0,0,0,0,0,0,-3.6662,-3.6664,-3.6793,-3.6794,-3.6794,-3.6856,-3.6857,-3.6857,-3.685,-3.6849,-3.6847,-3.6846,-3.6905,-3.6908,-3.6911,0,0,0,0,0,0,0,0,0,0,0,0,0,-3.6721,-3.6665,-3.6793,-3.6798,-3.6799,-3.6856,-3.6857,-3.6858,-3.685,-3.6848,-3.6847,-3.6846,-3.6904,-3.6908,-3.6912,-3.6965,0,0,-3.6923,-3.6925,0,0,0,0,0,0,0,0,-3.6718,-3.6726,-3.6796,-3.6798,-3.6799,-3.6843,-3.6832,-3.6893,-3.685,-3.6831,-3.6847,-3.6845,-3.6886,-3.6891,-3.6906,-3.6968,-3.697,-3.6924,-3.6926,-3.6928,-3.6929,0,0,0,0,0,0,0,-3.6714,-3.6723,-3.6818,-3.6797,-3.6799,-3.6796,-3.6803,-3.6844,-3.6866,-3.6832,-3.6832,-3.684,-3.6887,-3.6903,-3.6908,-3.6971,-3.6923,-3.6927,-3.6929,-3.6931,-3.7081,-3.7083,0,0,0,0,0,0,-3.6709,-3.672,-3.6816,-3.6819,-3.6754,-3.68,-3.6807,-3.6831,-3.6865,-3.6869,-3.6841,-3.6839,-3.6897,-3.6903,-3.691,-3.6976,-3.6927,-3.6931,-3.6933,-3.7079,-3.7082,-3.7083,0,0,0,0,0,0,-3.6706,-3.6717,-3.6813,-3.677,-3.6782,-3.6804,-3.683,-3.6833,-3.6849,-3.6872,-3.6875,-3.6854,-3.6896,-3.6904,-3.6952,-3.6977,-3.6933,-3.6936,-3.7077,-3.708,-3.7082,-3.7107,0,0,0,0,0,0,-3.6702,-3.6716,-3.6738,-3.677,-3.6784,-3.6856,-3.6831,-3.6835,-3.6856,-3.6854,-3.6885,-3.6888,-3.6895,-3.6946,-3.6956,-3.6982,-3.6939,-3.7075,-3.7079,-3.7082,-3.7104,-3.711,-3.7115,0,0,0,0,0,-3.6698,-3.6741,-3.6739,-3.6751,-3.6811,-3.6857,-3.6865,-3.6873,-3.6858,-3.6879,-3.6894,-3.6887,-3.6973,-3.6951,-3.6962,-3.6989,-3.7074,-3.7078,-3.7081,-3.7101,-3.7109,-3.7115,0,0,0,0,0,0,-3.6708,-3.6745,-3.6743,-3.6799,-3.6825,-3.6856,-3.6883,-3.6881,-3.6911,-3.6908,-3.6915,-3.6922,-3.6971,-3.6985,-3.696,-3.7043,-3.7021,-3.7027,-3.7033,-3.704,-3.7046,-3.7041,-3.6942,0,0,0,0,0,-3.6718,-3.6753,-3.6783,-3.6828,-3.6842,-3.686,-3.688,-3.6885,-3.6912,-3.6923,-3.6941,-3.6966,-3.6999,-3.702,-3.7051,-3.7106,-3.7113,-3.713,-3.7136,-3.714,-3.7145,-3.7176,-3.7184,-3.7096,-3.7096,-3.7096,0,0,-3.6736,-3.6761,-3.6782,-3.6831,-3.6852,-3.6888,-3.6869,-3.6907,-3.6934,-3.6928,-3.6975,-3.6989,-3.7018,-3.707,-3.7093,-3.7083,-3.7171,-3.7145,-3.7149,-3.7151,-3.7181,-3.7189,-3.7197,-3.7099,-3.7098,-3.7098,0,0,-3.6789,-3.6811,-3.6852,-3.6874,-3.6907,-3.6919,-3.6929,-3.6961,-3.6971,-3.7019,-3.7015,-3.7046,-3.7102,-3.7123,-3.7141,-3.7203,-3.7198,-3.7213,-3.7242,-3.7272,-3.7279,-3.7285,-3.7308,-3.7316,-3.7218,-3.7218,-3.7218,0,-3.6807,-3.6862,-3.6873,-3.6913,-3.6934,-3.6933,-3.6974,-3.6994,-3.7035,-3.705,-3.7038,-3.7109,-3.7128,-3.7185,-3.7201,-3.7215,-3.7226,-3.7209,-3.7278,-3.7284,-3.729,-3.7312,-3.732,-3.722,-3.7219,-3.7219,-3.7219,0,-3.6884,-3.6922,-3.6951,-3.6994,-3.7018,-3.7058,-3.7074,-3.7098,-3.7101,-3.7114,-3.7163,-3.7186,-3.7222,-3.7236,-3.7238,-3.7294,-3.7287,-3.7276,-3.7254,-3.73,-3.732,-3.7329,-3.7222,-3.7221,-3.7221,-3.722,0,0,-3.6944,-3.6993,-3.7003,-3.7023,-3.706,-3.7089,-3.7129,-3.7167,-3.7188,-3.7216,-3.725,-3.7298,-3.7289,-3.731,-3.7314,-3.734,-3.7389,-3.7327,-3.7327,-3.7338,-3.7453,-3.7461,-3.747,-3.7386,-3.7388,-3.7389,-3.745,0,-3.7,-3.7073,-3.7085,-3.7148,-3.7184,-3.7184,-3.7219,-3.7245,-3.7258,-3.729,-3.7304,-3.7338,-3.7324,-3.7336,-3.7362,-3.7378,-3.7412,-3.7373,-3.7417,-3.7418,-3.741,-3.7481,-3.7489,-3.7546,-3.7459,-3.746,-3.7461,0,-3.7076,-3.7109,-3.7177,-3.7211,-3.7226,-3.7258,-3.7294,-3.7324,-3.7353,-3.7361,-3.7386,-3.7387,-3.7428,-3.7404,-3.746,-3.7434,-3.7452,-3.7462,-3.7465,-3.7469,-3.7442,-3.7487,-3.7564,-3.7573,-3.7474,-3.7473,-3.7472,0,-3.7114,-3.7175,-3.7224,-3.7241,-3.7281,-3.7303,-3.7321,-3.7349,-3.7372,-3.7403,-3.7417,-3.7452,-3.7471,-3.7497,-3.7508,-3.749,-3.7564,-3.7541,-3.7571,-3.7571,-3.7586,-3.7585,-3.7668,-3.7598,-3.7598,-3.7598,-3.7597,0,-3.7176,-3.7217,-3.7242,-3.7272,-3.7319,-3.7331,-3.7377,-3.7393,-3.7419,-3.7451,-3.7452,-3.7482,-3.7495,-3.7527,-3.7535,-3.7581,-3.7589,-3.7596,-3.7598,-3.7596,-3.7596,-3.7609,-3.7605,-3.76,-3.7599,-3.7599,-3.7599,0,-3.7225,-3.7244,-3.7297,-3.7332,-3.7342,-3.7375,-3.7404,-3.7433,-3.7447,-3.7488,-3.7499,-3.752,-3.7558,-3.7572,-3.7617,-3.7623,-3.7676,-3.7674,-3.7666,-3.7667,-3.7697,-3.7694,-3.779,-3.7804,-3.7725,-3.7726,-3.7726,0,-3.7264,-3.7297,-3.7336,-3.7359,-3.7378,-3.7415,-3.7439,-3.7452,-3.7476,-3.7513,-3.7538,-3.7576,-3.7607,-3.7668,-3.7686,-3.7721,-3.7721,-3.7752,-3.7726,-3.7723,-3.7722,-3.772,-3.7723,-3.7757,-3.7758,-3.7758,-3.7759,0,-3.7331,-3.7339,-3.7374,-3.7413,-3.7442,-3.7473,-3.7502,-3.7521,-3.7538,-3.7566,-3.7606,-3.763,-3.7678,-3.7716,-3.7752,-3.7769,-3.7767,-3.7767,-3.7776,-3.7775,-3.777,-3.7773,-3.768,-3.7765,-3.7764,-3.7764,-3.7763,-3.7763,-3.7376,-3.7406,-3.7439,-3.7479,-3.7503,-3.7531,-3.7561,-3.7579,-3.7614,-3.7655,-3.766,-3.7704,-3.7733,-3.7781,-3.78,-3.7833,-3.7824,-3.7837,-3.784,-3.7843,-3.7846,-3.7764,-3.7839,-3.7839,-3.7839,-3.7839,-3.7839,0,-3.7444,-3.7466,-3.7502,-3.7545,-3.7576,-3.7574,-3.7607,-3.7633,-3.7671,-3.77,-3.7731,-3.7778,-3.7815,-3.7837,-3.7874,-3.7897,-3.7897,-3.7906,-3.7904,-3.7908,-3.7851,-3.784,-3.7905,-3.7905,-3.7905,-3.7905,-3.7905,-3.7905,-3.7482,-3.7533,-3.7545,-3.7607,-3.7628,-3.7672,-3.7692,-3.7717,-3.774,-3.7793,-3.7825,-3.784,-3.7866,-3.7905,-3.7939,-3.7944,-3.7958,-3.7968,-3.7973,-3.7919,-3.7912,-3.7906,-3.7895,-3.7971,-3.7971,-3.8027,-3.8028,-3.8028]}]]